Weather reports worldwide

Advertisment
Capo Frasca, Italy (16539): temperature & dewpoint: 20.03.2019 08:00:00 - 26.03.2019 08:00:00 (CET)Capo Frasca, Italy (16539): wind speed: 20.03.2019 08:00:00 - 26.03.2019 08:00:00 (CET)Capo Frasca, Italy (16539): wind direction: 20.03.2019 08:00:00 - 26.03.2019 08:00:00 (CET)Capo Frasca, Italy (16539): reduced air pressure: 20.03.2019 08:00:00 - 26.03.2019 08:00:00 (CET)Capo Frasca, Italy (16539): visibility: 20.03.2019 08:00:00 - 26.03.2019 08:00:00 (CET)
Date & Time tt [°C] td [°C] ff [km/h] ff [kn] dd ppp [hPa] vv [km]
26.03.2019 08:00:00 - - - - - - -
26.03.2019 07:00:00 11,0 8,6 22 12 WNW 1011,1 10
26.03.2019 06:00:00 - - - - - - -
26.03.2019 05:00:00 - - - - - - -
26.03.2019 04:00:00 - - - - - - -
26.03.2019 03:00:00 - - - - - - -
26.03.2019 02:00:00 - - - - - - -
26.03.2019 01:00:00 - - - - - - -
26.03.2019 00:00:00 - - - - - - -
25.03.2019 23:00:00 - - - - - - -
25.03.2019 22:00:00 - - - - - - -
25.03.2019 21:00:00 - - - - - - -
25.03.2019 20:00:00 - - - - - - -
25.03.2019 19:00:00 12,4 11,0 11 6 NNW 1014,9 20
25.03.2019 18:00:00 - - - - - - -
25.03.2019 17:00:00 - - - - - - -
25.03.2019 16:00:00 14,4 13,1 16 9 W 1016,4 20
25.03.2019 15:00:00 - - - - - - -
25.03.2019 14:00:00 - - - - - - -
25.03.2019 13:00:00 15,2 13,7 18 10 W 1018,4 20
25.03.2019 12:00:00 - - - - - - -
25.03.2019 11:00:00 - - - - - - -
25.03.2019 10:00:00 13,2 12,1 9 5 SW 1019,7 20
25.03.2019 09:00:00 - - - - - - -
25.03.2019 08:00:00 - - - - - - -
25.03.2019 07:00:00 9,0 8,1 0 0 N 1020,2 20
25.03.2019 06:00:00 - - - - - - -
25.03.2019 05:00:00 - - - - - - -
25.03.2019 04:00:00 - - - - - - -
25.03.2019 03:00:00 - - - - - - -
25.03.2019 02:00:00 - - - - - - -
25.03.2019 01:00:00 - - - - - - -
25.03.2019 00:00:00 - - - - - - -
24.03.2019 23:00:00 - - - - - - -
24.03.2019 22:00:00 - - - - - - -
24.03.2019 21:00:00 - - - - - - -
24.03.2019 20:00:00 - - - - - - -
24.03.2019 19:00:00 13,0 12,4 11 6 W 1022,2 20
24.03.2019 18:00:00 - - - - - - -
24.03.2019 17:00:00 - - - - - - -
24.03.2019 16:00:00 15,4 14,1 13 7 WNW 1022,5 18
24.03.2019 15:00:00 - - - - - - -
24.03.2019 14:00:00 - - - - - - -
24.03.2019 13:00:00 15,6 14,5 11 6 WNW 1023,7 10
24.03.2019 12:00:00 - - - - - - -
24.03.2019 11:00:00 - - - - - - -
24.03.2019 10:00:00 13,6 12,5 9 5 W 1023,9 4,0
24.03.2019 09:00:00 - - - - - - -
24.03.2019 08:00:00 - - - - - - -
24.03.2019 07:00:00 8,2 7,4 0 0 N 1023,3 2,0
24.03.2019 06:00:00 - - - - - - -
24.03.2019 05:00:00 - - - - - - -
24.03.2019 04:00:00 - - - - - - -
24.03.2019 03:00:00 - - - - - - -
24.03.2019 02:00:00 - - - - - - -
24.03.2019 01:00:00 - - - - - - -
24.03.2019 00:00:00 - - - - - - -
23.03.2019 23:00:00 - - - - - - -
23.03.2019 22:00:00 - - - - - - -
23.03.2019 21:00:00 - - - - - - -
23.03.2019 20:00:00 - - - - - - -
23.03.2019 19:00:00 13,2 13,2 9 5 SW 1022,2 10
23.03.2019 18:00:00 - - - - - - -
23.03.2019 17:00:00 - - - - - - -
23.03.2019 16:00:00 15,6 15,3 13 7 W 1022,3 20
23.03.2019 15:00:00 - - - - - - -
23.03.2019 14:00:00 - - - - - - -
23.03.2019 13:00:00 17,2 13,1 15 8 W 1022,7 20
23.03.2019 12:00:00 - - - - - - -
23.03.2019 11:00:00 - - - - - - -
23.03.2019 10:00:00 16,0 11,6 8 4 N 1023,2 18
23.03.2019 09:00:00 - - - - - - -
23.03.2019 08:00:00 - - - - - - -
23.03.2019 07:00:00 7,6 7,6 13 7 ESE 1023,0 10
23.03.2019 06:00:00 - - - - - - -
23.03.2019 05:00:00 - - - - - - -
23.03.2019 04:00:00 - - - - - - -
23.03.2019 03:00:00 - - - - - - -
23.03.2019 02:00:00 - - - - - - -
23.03.2019 01:00:00 - - - - - - -
23.03.2019 00:00:00 - - - - - - -
22.03.2019 23:00:00 - - - - - - -
22.03.2019 22:00:00 - - - - - - -
22.03.2019 21:00:00 - - - - - - -
22.03.2019 20:00:00 - - - - - - -
22.03.2019 19:00:00 15,0 13,4 13 7 SSE 1022,7 20
22.03.2019 18:00:00 - - - - - - -
22.03.2019 17:00:00 - - - - - - -
22.03.2019 16:00:00 16,0 14,0 0 0 N 1022,7 20
22.03.2019 15:00:00 - - - - - - -
22.03.2019 14:00:00 - - - - - - -
22.03.2019 13:00:00 15,8 13,1 4 2 NW 1023,4 20
22.03.2019 12:00:00 - - - - - - -
22.03.2019 11:00:00 - - - - - - -
22.03.2019 10:00:00 13,8 13,0 11 6 E 1023,3 20
22.03.2019 09:00:00 - - - - - - -
22.03.2019 08:00:00 - - - - - - -
22.03.2019 07:00:00 11,8 11,5 13 7 NE 1022,4 20
22.03.2019 06:00:00 - - - - - - -
22.03.2019 05:00:00 - - - - - - -
22.03.2019 04:00:00 - - - - - - -
22.03.2019 03:00:00 - - - - - - -
22.03.2019 02:00:00 - - - - - - -
22.03.2019 01:00:00 - - - - - - -
22.03.2019 00:00:00 - - - - - - -
21.03.2019 23:00:00 - - - - - - -
21.03.2019 22:00:00 - - - - - - -
21.03.2019 21:00:00 - - - - - - -
21.03.2019 20:00:00 - - - - - - -
21.03.2019 19:00:00 14,0 11,5 16 9 ENE 1020,4 25
21.03.2019 18:00:00 - - - - - - -
21.03.2019 17:00:00 - - - - - - -
21.03.2019 16:00:00 16,2 12,7 16 9 NE 1020,1 20
21.03.2019 15:00:00 - - - - - - -
21.03.2019 14:00:00 - - - - - - -
21.03.2019 13:00:00 17,6 11,6 16 9 ENE 1021,2 20
21.03.2019 12:00:00 - - - - - - -
21.03.2019 11:00:00 - - - - - - -
21.03.2019 10:00:00 12,4 10,0 15 8 ENE 1021,7 20
21.03.2019 09:00:00 - - - - - - -
21.03.2019 08:00:00 - - - - - - -
21.03.2019 07:00:00 10,4 8,2 21 11 ENE 1020,1 20
21.03.2019 06:00:00 - - - - - - -
21.03.2019 05:00:00 - - - - - - -
21.03.2019 04:00:00 - - - - - - -
21.03.2019 03:00:00 - - - - - - -
21.03.2019 02:00:00 - - - - - - -
21.03.2019 01:00:00 - - - - - - -
21.03.2019 00:00:00 - - - - - - -
20.03.2019 23:00:00 - - - - - - -
20.03.2019 22:00:00 - - - - - - -
20.03.2019 21:00:00 - - - - - - -
20.03.2019 20:00:00 - - - - - - -
20.03.2019 19:00:00 11,8 11,2 24 13 NE 1020,8 25
20.03.2019 18:00:00 - - - - - - -
20.03.2019 17:00:00 - - - - - - -
20.03.2019 16:00:00 15,0 10,4 21 11 NE 1019,7 20
20.03.2019 15:00:00 - - - - - - -
20.03.2019 14:00:00 - - - - - - -
20.03.2019 13:00:00 15,6 9,9 13 7 NE 1021,2 20
20.03.2019 12:00:00 - - - - - - -
20.03.2019 11:00:00 - - - - - - -
20.03.2019 10:00:00 12,2 8,7 21 11 NE 1021,4 20
20.03.2019 09:00:00 - - - - - - -
20.03.2019 08:00:00 - - - - - - -

tt = temperature
td = dewpoint
ff = wind speed
dd = wind direction
ppp = reduced air pressure
vv = visibility

Next stations